Location: Mount Cross
(36.6390°N, 79.4878°W)
Time: 20:11:45
(UTC+00:00)

Courier 1B Rocket - Pass Details

Date: 29 March 2023
Orbit: 920 x 1202 km, 28.2° (Epoch: 05 June)

Event Time Altitude Azimuth Distance (km) Brightness Sun altitude
Rises 05:32:18 0° 260° (W) 3,664 - -50.0°
Reaches altitude 10° 05:36:26 10° 236° (WSW) 2,664 - -50.0°
Maximum altitude 05:39:30 14° 207° (SSW) 2,365 - -49.9°
Drops below altitude 10° 05:42:31 10° 178° (S) 2,612 - -49.8°
Sets 05:46:30 0° 153° (SSE) 3,538 - -49.7°
